KD7KCN-5 Weather Reports


Display with metric or nautical units.
time (UTC)temp
F
wind
direction
speed
MPH
gust
MPH
rain 1hr
in
rain 24hr
in
rain mn
in
humidity
%
barometer
mb
20260831144549 74 103 6.0 9.0 0.00 0.00 0.00 47 1017.5
20260831143548 72 133 5.0 8.0 0.00 0.00 0.00 49 1017.6
20260831142550 71 115 6.0 8.0 0.00 0.00 0.00 50 1017.5
20260831141548 70 130 5.0 7.0 0.00 0.00 0.00 50 1017.4
20260831140548 70 132 2.0 5.0 0.00 0.00 0.00 51 1017.3
20260831135549 70 132 3.0 8.0 0.00 0.00 0.00 51 1017.2
20260831134548 69 130 6.0 9.0 0.00 0.00 0.00 51 1017.1
20260831133548 69 129 4.0 7.0 0.00 0.00 0.00 52 1016.9
20260831132548 69 141 4.0 7.0 0.00 0.00 0.00 53 1016.8
20260831131548 69 156 2.0 5.0 0.00 0.00 0.00 51 1016.8
20260831130548 69 0 0.0 4.0 0.00 0.00 0.00 51 1016.7
20260831125548 70 162 2.0 5.0 0.00 0.00 0.00 48 1016.6
20260831124548 70 167 2.0 10.0 0.00 0.00 0.00 54 1016.6
20260831123548 70 156 2.0 6.0 0.00 0.00 0.00 52 1016.6
20260831122549 70 165 3.0 11.0 0.00 0.00 0.00 53 1016.5
20260831121549 70 159 4.0 8.0 0.00 0.00 0.00 50 1016.5
20260831115548 70 169 5.0 8.0 0.00 0.00 0.00 47 1016.6
20260831114548 70 179 5.0 8.0 0.00 0.00 0.00 46 1016.7
20260831113551 71 173 5.0 11.0 0.00 0.00 0.00 44 1016.8
20260831112548 71 168 4.0 12.0 0.00 0.00 0.00 41 1016.8
20260831111549 71 179 6.0 11.0 0.00 0.00 0.00 40 1016.9
20260831110550 71 176 6.0 9.0 0.00 0.00 0.00 34 1016.9
20260831104548 72 172 6.0 9.0 0.00 0.00 0.00 31 1016.9
20260831103549 72 182 5.0 9.0 0.00 0.00 0.00 31 1016.9
20260831100551 72 154 5.0 9.0 0.00 0.00 0.00 29 1016.8
20260831095549 73 173 6.0 9.0 0.00 0.00 0.00 29 1016.7
20260831094549 72 185 5.0 8.0 0.00 0.00 0.00 29 1016.6
20260831093550 73 166 5.0 6.0 0.00 0.00 0.00 29 1016.5
20260831092548 74 166 4.0 8.0 0.00 0.00 0.00 29 1016.4
20260831091549 74 168 3.0 9.0 0.00 0.00 0.00 29 1016.4
20260831085549 73 189 5.0 8.0 0.00 0.00 0.00 30 1016.2
20260831084549 73 186 4.0 8.0 0.00 0.00 0.00 30 1016.2
20260831083549 73 181 5.0 8.0 0.00 0.00 0.00 31 1016.1
20260831082549 73 0 0.0 0.0 0.00 0.00 0.00 31 1016.2
20260831081549 73 0 0.0 0.0 0.00 0.00 0.00 31 1016.2
20260831080550 73 0 0.0 0.0 0.00 0.00 0.00 31 1016.0
20260831075549 73 0 0.0 0.0 0.00 0.00 0.00 31 1016.0
20260831074550 74 0 0.0 0.0 0.00 0.00 0.00 31 1015.9
20260831073549 74 0 0.0 0.0 0.00 0.00 0.00 30 1016.0
20260831072551 74 0 0.0 0.0 0.00 0.00 0.00 29 1015.9
20260831071549 74 0 0.0 1.0 0.00 0.00 0.00 29 1016.0
20260831070549 75 0 0.0 2.0 0.00 0.00 0.00 29 1015.9
20260831065549 75 210 2.0 6.0 0.00 0.00 0.00 28 1015.9
20260831064549 75 212 4.0 8.0 0.00 0.00 0.00 29 1015.9
20260831063549 75 204 5.0 8.0 0.00 0.00 0.00 29 1015.9
20260831062549 75 195 4.0 8.0 0.00 0.00 0.00 29 1016.0
20260831061551 75 212 5.0 9.0 0.00 0.00 0.00 30 1015.9
20260831060549 75 219 6.0 9.0 0.00 0.00 0.00 30 1016.0
20260831055634 75 192 5.0 8.0 0.00 0.00 0.00 30 1016.0
20260831055549 75 192 5.0 8.0 0.00 0.00 0.00 30 1016.0
20260831054550 75 191 5.0 8.0 0.00 0.00 0.00 30 1016.1
20260831051549 76 172 2.0 4.0 0.00 0.00 0.00 29 1016.3
20260831050550 75 170 1.0 5.0 0.00 0.00 0.00 29 1016.2
20260831045550 75 170 3.0 7.0 0.00 0.00 0.00 29 1016.1
20260831044549 76 160 2.0 5.0 0.00 0.00 0.00 29 1016.1
20260831043550 76 0 0.0 1.0 0.00 0.00 0.00 28 1016.1
20260831042550 76 0 0.0 2.0 0.00 0.00 0.00 28 1016.1
20260831041549 76 0 0.0 5.0 0.00 0.00 0.00 28 1016.0
20260831040549 77 163 3.0 5.0 0.00 0.00 0.00 28 1016.0
20260831035550 77 0 0.0 3.0 0.00 0.00 0.00 28 1015.7
20260831034551 77 0 0.0 0.0 0.00 0.00 0.00 28 1015.6
20260831033549 77 0 0.0 1.0 0.00 0.00 0.00 28 1015.5
20260831032550 77 0 0.0 2.0 0.00 0.00 0.00 28 1015.3
20260831025551 77 158 4.0 6.0 0.00 0.00 0.00 28 1015.9
20260831024550 77 156 1.0 5.0 0.00 0.00 0.00 28 1015.8
20260831023549 77 156 2.0 5.0 0.00 0.00 0.00 27 1015.8
20260831022549 77 156 2.0 5.0 0.00 0.00 0.00 27 1015.7
20260831021550 77 155 2.0 6.0 0.00 0.00 0.00 27 1015.5
20260831020550 78 156 3.0 8.0 0.00 0.00 0.00 27 1015.4
20260831015551 78 138 6.0 10.0 0.00 0.00 0.00 27 1015.2
20260831014550 78 159 7.0 11.0 0.00 0.00 0.00 26 1015.2
20260831013550 79 128 3.0 10.0 0.00 0.00 0.00 26 1015.1
20260831012550 79 130 4.0 9.0 0.00 0.00 0.00 26 1015.1
20260831011550 79 157 7.0 15.0 0.00 0.00 0.00 26 1015.2
20260831010550 79 150 6.0 13.0 0.00 0.00 0.00 26 1015.2
20260831005550 79 216 6.0 17.0 0.00 0.00 0.00 25 1015.3
20260831004550 80 158 9.0 19.0 0.00 0.00 0.00 25 1015.2
20260831003550 80 122 8.0 20.0 0.00 0.00 0.00 25 1015.3
20260831002550 80 138 11.0 25.0 0.00 0.00 0.00 25 1015.2
20260830235550 80 161 9.0 18.0 0.00 0.00 0.00 26 1015.3
20260830234550 80 157 10.0 27.0 0.00 0.00 0.00 25 1015.3
20260830233550 80 139 14.0 25.0 0.00 0.00 0.00 26 1015.2
20260830231550 81 122 17.0 29.0 0.00 0.00 0.00 25 1014.9
20260830230622 81 149 12.0 31.0 0.00 0.00 0.00 25 1014.8
20260830230550 81 149 12.0 31.0 0.00 0.00 0.00 25 1014.8
20260830225550 82 117 13.0 35.0 0.00 0.00 0.00 25 1014.7
20260830224550 83 209 12.0 34.0 0.00 0.00 0.00 23 1014.7
20260830222550 83 170 17.0 28.0 0.00 0.00 0.00 23 1014.9
20260830221552 83 131 15.0 33.0 0.00 0.00 0.00 23 1014.9
20260830213550 84 185 25.0 35.0 0.00 0.00 0.00 23 1015.0
20260830212550 86 142 15.0 24.0 0.00 0.00 0.00 22 1015.1
20260830211550 86 138 11.0 41.0 0.00 0.00 0.00 23 1015.4
20260830210551 84 161 25.0 36.0 0.00 0.00 0.00 25 1015.3
20260830204550 84 152 17.0 35.0 0.00 0.00 0.00 25 1015.3
20260830203550 83 148 22.0 35.0 0.00 0.00 0.00 26 1015.4
20260830201550 85 168 15.0 32.0 0.00 0.00 0.00 26 1015.6
20260830200551 83 88 13.0 36.0 0.00 0.00 0.00 27 1015.5
20260830195551 83 152 14.0 35.0 0.00 0.00 0.00 27 1015.7
20260830193550 82 122 23.0 32.0 0.00 0.00 0.00 28 1015.6
20260830192550 83 133 15.0 33.0 0.00 0.00 0.00 28 1015.9
20260830190550 82 152 14.0 32.0 0.00 0.00 0.00 28 1016.2
20260830185550 83 135 19.0 29.0 0.00 0.00 0.00 28 1015.8
20260830184550 83 131 12.0 25.0 0.00 0.00 0.00 28 1016.0
20260830183551 81 153 7.0 35.0 0.00 0.00 0.00 30 1016.2
20260830182552 81 115 13.0 35.0 0.00 0.00 0.00 30 1016.1
20260830181551 80 153 21.0 41.0 0.00 0.00 0.00 31 1016.4
20260830175554 81 123 12.0 28.0 0.00 0.00 0.00 32 1016.4
20260830174551 82 156 13.0 29.0 0.00 0.00 0.00 31 1016.4
20260830173551 81 150 11.0 26.0 0.00 0.00 0.00 32 1016.3
20260830172551 81 165 15.0 24.0 0.00 0.00 0.00 32 1016.2
20260830171551 80 137 8.0 31.0 0.00 0.00 0.00 33 1016.3
20260830170552 80 147 16.0 26.0 0.00 0.00 0.00 33 1017.1
20260830165551 79 156 16.0 30.0 0.00 0.00 0.00 35 1016.3
20260830163551 81 156 8.0 19.0 0.00 0.00 0.00 33 1016.3
20260830162552 80 152 11.0 22.0 0.00 0.00 0.00 33 1016.3
20260830160551 79 159 13.0 26.0 0.00 0.00 0.00 34 1016.1
20260830154551 78 130 13.0 24.0 0.00 0.00 0.00 34 1016.0
20260830153551 80 114 10.0 16.0 0.00 0.00 0.00 33 1016.1
20260830152551 80 112 9.0 13.0 0.00 0.00 0.00 33 1016.2
20260830151551 79 97 6.0 13.0 0.00 0.00 0.00 34 1016.4
20260830150551 78 101 4.0 9.0 0.00 0.00 0.00 34 1016.4
20260830145551 77 84 3.0 8.0 0.00 0.00 0.00 36 1016.4